Theta_e
312 311 309 307 306 306 302 300 297 307 307 301 295 292 295 297 299 302 299 298 294 293 293 291 292 291 293 300 299 294 295 294 287 289 293 295 294 291 292 285 282 284 283 283
312 311 309 307 307 306 300 297 296 305 305 294 292 295 296 298 297 297 296 295 294 294 292 289 291 292 297 299 298 296 297 291 284 284 289 293 290 293 294 292 289 283 280 283
312 311 309 307 307 306 301 299 293 297 297 296 292 290 292 293 299 298 298 295 295 292 290 293 291 291 295 296 296 300 299 291 287 282 285 289 287 289 292 290 285 285 285 287
312 312 309 307 307 306 303 298 292 292 289 293 292 291 293 291 292 297 297 295 294 291 287 288 288 292 292 294 300 297 296 288 289 290 290 290 289 288 289 288 289 284 287 288
312 312 309 306 307 305 300 296 295 296 293 294 292 293 292 292 293 293 292 291 293 293 288 289 288 291 291 290 295 296 294 290 289 286 289 289 287 289 290 290 290 290 290 289
312 311 309 305 307 304 298 297 299 296 292 292 290 291 291 290 291 294 296 295 292 291 293 296 297 297 295 294 293 292 291 290 286 282 287 288 285 289 290 292 293 292 287 293
312 312 310 304 306 303 299 297 297 293 289 290 289 290 291 290 292 291 294 295 292 296 300 300 298 295 295 294 293 294 290 288 288 284 287 279 289 295 294 291 292 294 294 294
311 312 311 306 306 304 301 299 298 293 288 291 290 291 290 292 292 291 292 295 299 301 297 292 290 290 292 293 294 293 293 290 286 284 284 287 289 291 291 288 288 294 291 292
311 312 311 307 305 306 302 301 300 297 290 289 292 290 290 288 288 290 293 299 300 298 293 291 285 284 288 287 290 293 291 292 288 285 281 279 288 293 296 293 284 293 292 291
311 312 312 308 306 306 303 301 301 297 291 293 293 289 288 292 291 288 291 293 294 299 290 288 286 286 291 286 286 288 288 288 285 285 283 287 293 294 295 282 285 293 293 292
310 311 312 310 307 306 303 300 301 297 292 293 295 295 292 292 291 287 292 291 292 292 288 288 289 287 288 288 290 289 287 285 285 286 282 280 295 293 287 291 294 294 293 293
310 310 311 311 308 306 305 298 301 301 294 293 298 298 299 297 296 293 293 291 291 292 289 289 289 287 288 288 285 294 286 290 287 287 289 294 297 295 296 296 294 293 293 294
309 310 311 312 309 307 305 299 299 297 293 292 293 293 299 300 298 301 290 294 296 295 296 292 290 287 291 287 288 290 291 292 289 289 292 294 295 297 297 296 295 295 296 295
309 309 310 310 310 308 305 298 299 297 293 287 290 299 297 302 301 298 298 297 298 296 294 293 292 289 292 290 291 290 293 293 289 289 293 294 295 295 296 296 296 296 296 295
309 309 310 311 309 307 304 300 299 300 294 288 289 295 298 300 299 298 298 296 295 293 291 292 290 292 293 294 293 290 293 290 288 288 294 291 292 295 297 295 295 295 293 293
309 310 310 309 307 304 300 293 299 300 298 290 283 294 295 298 298 298 296 296 294 294 292 292 293 293 294 289 286 292 293 293 293 291 295 294 295 296 297 295 295 295 295 294
309 309 309 306 305 301 295 293 298 302 300 289 285 286 295 297 298 297 296 297 295 295 292 291 292 294 297 292 288 293 292 293 294 295 294 292 295 293 296 296 296 296 295 294
308 308 306 305 303 301 297 300 302 301 294 292 284 285 291 298 294 294 299 295 296 294 293 294 292 297 295 288 292 291 293 294 294 294 295 294 295 295 295 296 295 293 292 292
307 305 304 300 297 294 296 303 303 301 295 287 286 285 285 296 295 298 297 297 290 296 292 294 295 292 288 292 291 291 292 292 292 293 293 294 292 292 293 294 293 291 292 292
304 300 295 291 295 302 303 297 292 291 291 290 286 291 287 292 291 293 293 294 291 288 292 296 290 290 294 293 292 294 293 292 292 289 289 291 290 291 291 293 293 293 292 292
297 293 292 298 303 298 293 288 287 287 284 287 288 289 287 295 288 288 293 289 291 286 289 288 288 288 290 293 292 293 293 293 293 293 292 292 291 290 291 292 293 293 292 291
297 297 300 298 293 290 286 285 288 285 284 289 288 289 290 291 294 289 291 289 290 284 292 288 285 289 290 292 292 293 293 293 292 292 291 292 292 292 292 292 292 293 293 293
299 295 291 289 289 283 281 281 284 286 289 289 289 288 290 291 292 290 290 287 287 294 287 286 288 290 292 292 293 292 293 293 292 291 292 291 292 293 292 292 293 293 292 293
290 289 284 284 283 285 286 287 289 293 294 293 293 292 291 292 288 290 287 291 291 285 284 285 290 292 292 292 293 292 292 293 292 291 291 290 290 291 292 293 293 292 290 292
289 289 282 284 289 290 292 293 293 294 296 294 293 293 293 291 289 290 289 287 284 287 287 290 292 292 292 293 293 293 292 292 291 291 290 289 289 290 291 292 293 292 291 291
291 289 286 290 288 289 291 292 292 296 296 296 294 291 289 289 289 287 286 284 284 288 291 293 293 292 293 293 293 293 291 291 290 291 290 289 288 288 289 291 291 291 290 290
289 287 292 291 290 290 292 294 294 298 294 290 290 285 287 292 288 286 289 287 290 290 292 293 293 293 294 294 293 291 290 290 290 290 290 289 290 289 288 286 288 290 290 290
Wind_Speed
12 13 13 15 17 23 7 4 0 6 6 1 2 1 4 5 7 7 5 10 7 8 4 6 7 10 1 4 2 1 2 2 6 9 2 4 5 7 9 6 6 6 4 16
10 11 13 13 15 14 5 4 4 4 4 2 3 4 4 4 5 2 2 7 6 4 3 5 1 4 3 1 2 3 5 3 4 4 3 3 5 8 9 6 1 11 11 11
9 10 11 12 14 14 1 3 5 4 6 3 5 6 3 3 8 6 3 6 4 4 3 2 4 3 5 2 1 2 7 5 11 10 10 2 7 9 11 11 9 14 19 29
9 8 8 10 12 15 2 4 3 1 4 4 7 3 4 8 5 4 4 4 6 7 4 5 5 10 5 3 1 4 4 8 7 11 12 12 15 17 16 17 18 17 22 23
8 7 5 7 11 13 3 2 2 1 3 6 7 3 2 9 5 2 1 5 7 7 6 8 13 16 14 9 3 4 3 3 3 10 12 13 15 16 16 17 17 20 20 22
8 6 4 3 7 6 2 1 1 2 0 3 5 3 6 8 10 6 6 6 8 9 11 8 17 15 13 10 5 7 4 3 2 5 3 11 14 4 3 5 7 9 15 20
8 6 6 2 3 5 1 1 0 1 2 2 6 10 14 16 13 7 6 11 10 4 15 17 9 8 9 8 7 4 5 4 3 6 8 6 5 3 3 9 13 14 16 18
8 7 7 7 5 4 1 1 1 1 3 4 8 6 7 9 10 11 13 14 10 7 13 5 4 3 3 3 3 7 7 4 3 4 4 11 4 2 5 8 16 17 9 14
8 8 7 11 8 7 2 1 1 1 2 3 4 4 9 7 4 4 4 7 6 1 4 2 4 2 1 3 4 5 6 1 3 3 4 5 3 3 9 8 15 8 14 19
9 9 7 13 12 10 3 1 2 1 2 4 4 4 4 5 4 4 6 6 3 2 1 2 3 1 1 2 2 3 4 3 6 6 4 6 1 9 8 7 9 21 19 22
8 9 9 15 14 12 5 1 4 2 3 5 7 5 6 7 5 3 4 6 2 2 3 2 0 1 2 1 1 2 1 2 2 2 4 5 5 6 7 13 16 20 22 21
9 10 10 13 15 13 8 2 1 2 2 4 3 11 18 19 16 3 3 3 3 3 1 2 2 1 1 0 1 2 2 1 1 5 4 3 7 10 12 10 18 18 21 22
10 11 10 10 16 15 10 2 3 2 2 4 4 5 3 6 11 8 3 3 3 1 3 3 1 2 1 1 1 1 2 1 3 5 1 9 15 12 13 18 17 21 20 24
10 11 11 10 17 15 10 3 3 2 0 3 4 2 9 4 6 11 12 5 2 2 3 3 2 1 2 1 1 2 1 2 2 8 12 15 4 17 19 22 20 21 22 23
11 11 10 11 14 11 5 2 3 2 2 3 6 14 4 6 10 11 12 11 6 1 3 2 1 0 2 1 2 4 2 1 2 4 11 9 17 20 21 19 21 21 23 27
11 11 8 12 15 12 3 1 2 3 2 1 4 4 5 6 8 9 9 7 5 4 2 1 1 3 3 2 2 3 4 2 3 6 12 14 18 18 18 20 21 21 21 25
9 8 13 17 16 3 2 2 2 8 2 2 4 4 2 2 4 4 4 7 3 2 0 2 2 2 4 2 2 6 1 4 7 8 10 10 10 15 20 19 19 21 20 21
6 13 17 15 12 6 1 2 9 6 2 2 3 4 3 0 3 3 4 3 3 3 3 2 3 2 0 3 3 2 3 7 5 8 10 13 15 17 18 17 17 20 22 23
17 20 17 5 2 2 1 8 10 2 1 2 3 3 1 4 2 3 3 3 3 2 3 2 2 2 4 1 4 1 4 6 10 12 12 13 15 17 17 19 20 18 22 23
22 4 2 2 2 4 9 3 1 2 2 2 3 2 2 0 2 3 3 2 3 4 2 3 3 2 5 5 4 3 5 7 9 12 15 17 16 16 17 18 17 16 20 21
2 2 2 2 8 2 1 2 3 3 3 3 4 5 3 2 3 1 2 2 2 3 2 2 2 2 3 4 4 4 5 6 7 9 11 12 14 14 14 15 17 17 18 19
4 5 4 2 2 2 3 3 3 4 3 3 3 3 3 2 2 3 2 2 3 2 5 2 2 3 4 3 4 5 5 5 7 10 12 14 14 13 12 12 14 17 17 18
3 2 2 3 3 4 5 5 4 3 3 2 3 3 2 4 4 3 3 4 2 4 2 2 2 5 4 3 3 4 4 5 7 10 12 13 13 12 12 12 13 16 16 18
2 4 6 4 4 5 4 3 1 0 1 1 4 2 4 3 3 2 3 3 3 3 3 2 3 5 5 3 4 4 5 6 7 9 11 14 14 12 13 14 13 15 16 18
3 3 4 6 3 2 2 3 2 2 3 2 3 1 2 3 2 1 2 4 3 2 1 3 5 6 5 4 4 4 5 6 6 8 10 13 13 12 12 13 14 14 15 15
2 3 2 2 2 3 3 5 5 2 2 1 2 0 2 2 0 3 2 2 3 2 2 5 7 7 4 4 4 5 5 6 7 7 9 10 12 13 12 12 13 14 15 15
3 2 3 3 1 3 1 2 2 2 2 2 2 2 0 1 1 2 2 2 2 5 6 6 7 6 5 5 5 6 6 7 7 7 8 9 9 10 11 15 15 14 15 14
Wind_Direction
309 316 329 334 347 345 24 336 48 359 337 2 31 66 337 331 355 6 325 314 262 264 304 320 264 252 131 351 188 166 67 200 245 261 109 286 246 246 216 230 198 227 290 276
306 312 323 337 351 10 323 353 303 338 328 17 32 338 333 312 325 291 279 244 313 308 239 213 20 28 15 172 186 186 173 204 276 236 161 153 208 200 222 233 288 256 269 264
312 306 320 336 345 359 17 350 342 354 35 36 15 354 300 328 334 298 256 299 308 310 286 218 232 199 306 287 270 168 172 217 244 258 292 219 245 240 228 245 260 275 258 280
311 302 314 330 344 351 309 8 74 26 356 351 336 288 300 304 303 22 26 295 269 354 270 321 287 286 254 214 187 123 217 249 230 256 267 264 270 273 264 250 257 256 278 287
306 300 291 327 349 350 65 9 354 102 317 298 301 288 267 289 356 351 311 230 270 279 254 269 281 299 287 263 173 176 179 238 257 279 274 277 278 271 266 262 266 265 274 285
298 294 260 319 6 0 49 72 128 286 315 331 314 296 5 326 338 279 248 289 290 266 270 270 275 283 271 261 218 183 200 207 263 274 313 305 276 331 255 251 260 279 281 297
292 284 222 197 57 51 83 89 203 182 275 267 305 302 306 301 309 265 267 294 267 238 311 302 264 236 245 227 228 200 166 187 209 285 300 245 64 48 316 309 283 283 274 300
290 281 216 191 167 134 111 131 198 174 261 276 296 305 316 317 305 279 279 276 251 288 302 272 249 188 193 126 50 206 211 151 247 263 256 304 164 21 3 331 293 292 303 313
281 278 225 190 186 168 123 176 129 160 276 225 266 299 294 289 277 284 269 287 333 322 257 279 248 234 134 160 135 57 164 108 223 193 291 288 73 296 329 305 287 100 328 315
278 278 257 190 190 181 145 179 176 137 242 256 208 259 306 304 278 280 290 330 304 223 41 242 232 216 316 186 186 165 150 169 230 261 284 270 78 336 319 287 337 323 316 310
277 282 273 194 189 187 157 175 184 180 229 265 244 235 225 259 229 238 2 307 179 240 237 262 244 249 64 264 62 132 177 205 232 262 253 276 30 341 335 319 307 310 304 299
277 279 264 207 190 187 169 197 154 134 237 270 270 261 264 259 253 271 205 306 309 303 294 229 248 158 222 12 193 203 228 332 267 226 272 18 319 296 307 312 312 305 304 308
268 269 258 234 188 187 173 143 142 160 274 269 257 260 256 244 227 205 196 235 252 76 343 329 19 258 207 213 166 270 82 131 246 321 41 319 311 318 321 323 310 309 306 305
265 259 248 237 187 186 165 156 161 135 106 281 279 302 279 303 178 193 206 250 333 5 299 265 259 242 215 206 292 237 69 210 288 272 291 320 259 329 319 318 313 315 314 313
276 260 238 212 175 164 128 113 189 180 183 283 290 303 272 260 190 191 198 220 255 266 271 252 259 337 215 203 263 245 167 87 274 286 324 295 296 313 318 314 319 322 318 315
279 255 228 155 137 128 125 225 165 173 148 292 292 328 280 318 170 193 201 206 213 231 250 287 256 260 253 228 227 132 123 194 266 280 304 298 294 304 316 320 320 317 314 314
273 245 152 143 146 127 147 177 132 155 131 233 280 281 238 294 208 167 170 179 199 202 150 262 272 247 226 274 244 137 188 313 302 298 317 306 316 318 321 323 319 316 318 317
243 140 132 142 123 99 166 165 143 140 160 225 264 272 271 276 191 182 173 158 189 178 167 208 235 170 119 249 137 137 350 332 302 326 323 307 315 318 324 327 330 331 328 328
129 119 113 106 100 150 209 171 169 150 271 251 238 266 289 344 246 143 163 176 170 121 208 210 223 188 226 141 163 8 5 336 315 318 318 325 327 328 329 335 341 333 330 332
123 103 117 166 194 168 135 124 119 149 209 224 248 242 257 324 319 162 159 172 197 188 171 137 212 240 93 86 83 32 345 335 332 333 334 333 333 334 336 341 339 337 336 332
99 109 102 77 143 163 163 191 203 168 236 214 229 222 229 175 241 245 208 204 169 192 131 247 195 206 114 116 54 10 347 346 343 334 328 334 335 338 340 342 341 343 342 338
124 109 111 129 178 195 222 199 186 207 251 196 220 195 191 236 209 226 221 179 194 175 141 228 208 97 120 95 37 18 19 9 5 357 348 348 349 348 345 344 346 348 347 346
78 98 127 150 150 202 218 198 199 219 196 223 186 187 203 198 216 235 205 200 118 132 202 207 75 128 126 85 64 71 40 24 11 4 1 1 355 358 357 351 352 354 354 358
138 163 162 212 183 222 213 230 240 14 317 270 244 185 194 182 182 228 205 96 163 221 227 169 127 142 126 118 99 74 31 18 14 5 2 0 2 358 1 2 359 1 360 358
172 174 210 208 233 219 227 259 194 260 272 285 327 243 195 209 223 227 134 174 233 240 88 121 134 135 134 122 96 60 38 22 19 7 5 4 6 2 358 4 6 8 5 2
198 210 224 175 212 238 204 230 234 217 245 224 211 281 250 196 187 190 191 188 220 139 130 127 136 135 126 110 78 71 63 47 32 27 14 7 10 8 2 3 7 10 10 5
216 222 228 224 281 251 205 247 196 165 226 163 176 208 212 81 220 208 196 211 106 136 127 129 128 129 121 105 97 93 71 53 42 34 20 13 6 6 15 19 10 14 13 12